Regional Weather Roundup
Issued by NWS New Orleans/Baton Rouge, LA

Home | Current Version | Previous Version | Text Only | Print | Product List | Glossary On
Versions: 1 2 3 4 5 6 7 8 9 10 11 12 13 14 15 16 17 18 19 20 21 22 23 24 25 26 27 28 29 30 31 32 33 34 35 36 37 38 39 40 41 42 43 44 45 46 47 48 49 50
000
ASUS44 KLIX 031611
RWRLIX
NEW ORLEANS REGIONAL WEATHER ROUNDUP
NATIONAL WEATHER SERVICE NEW ORLEANS LA
1100 AM CDT FRI JUL 03 2015

NOTE: "FAIR" INDICATES FEW OR NO CLOUDS BELOW 12,000 FEET WITH NO
      SIGNIFICANT WEATHER AND/OR OBSTRUCTIONS TO VISIBILITY.
      SKY/WX - SKY CONDITION AND SIGNIFICANT WEATHER.
      TMP - AIR TEMPERATURE.     DP    - DEWPOINT TEMPERATURE.
      RH  - RELATIVE HUMIDITY.   PRES  - PRESSURE.
      HI  - HEAT INDEX.          WCI   - WIND CHILL INDEX.

*  THESE STATIONS ARE NOT NWS OR FAA STATIONS AND ARE NOT UNDER
   NWS QUALITY CONTROL.

LAZ038-040-048-061>063-065>067-069-031700-
SOUTHEAST LOUISIANA

CITY           SKY/WX    TMP DP  RH WIND       PRES   REMARKS
N.O. AUDUBON     N/A     93  80  64 MISG        N/A  HX 111
N.O. INTL ARPT MOSUNNY   90  72  55 SW10      30.05R HX  97
N.O. LAKEFRONT MOSUNNY   92  72  51 SW8       30.06R HX  99
N.O. DOWNTOWN*   N/A     91  75  59 S6        30.06S HX 102
RESERVE*         N/A     89  75  63 W6        30.05S HX  99
SLIDELL        SUNNY     88  76  67 VRB7      30.05S HX  99
BATON ROUGE    MOSUNNY   88  75  65 VRB3      30.04S HX  97
BOOTHVILLE     PTSUNNY   87  78  74 SW6       30.07R HX 100
BELLE CHASSE   MOSUNNY   87  74  64 SW8       30.05R HX  95
BOGALUSA*        N/A     88  74  62 SW9       30.07S HX  96
GALLIANO*      MOSUNNY   89  74  60 MISG      30.06R HX  98
NEW ROADS*       N/A    N/A N/A N/A SW6       30.05S
GONZALES*        N/A     88  76  66 SW6       30.04S HX  98
HAMMOND*       MOSUNNY   90  72  55 SW6       30.07S HX  96
HOUMA*         MOSUNNY   88  75  66 SW8       30.05R HX  97
PORT FOURCHON* MOSUNNY   86  75  70 S9        30.07R HX  95

$$

MSZ070-080>082-031700-
SOUTHERN MISSISSIPPI

CITY           SKY/WX    TMP DP  RH WIND       PRES   REMARKS
MCCOMB         MOSUNNY   85  75  72 SW9       30.07R
GULFPORT       MOSUNNY   87  77  72 S6        30.06R HX  99
BILOXI         MOSUNNY   87  78  73 S10       30.06R HX  99
PASCAGOULA     PTSUNNY   87  78  74 SW6       30.07R HX 100

$$

COASTAL OBSERVATIONS
LAKE AND NEARSHORE STATIONS

STATION/POSITION TIME  TEMP    WIND        PRES    WAVE
                       AIR SEA DIR/SP/G            HT/PER
                 (UTC) (F)     (DEG/KT/KT) (MB)    (FT/S)
PASCAGOULA       1500   85     240/  9/ 10 1017.6
WAVELAND YACHT   1500   85 83  210/  6/ 10 1017.9
GRAND ISLE       1500   85 85  210/  6/ 10 1017.8
SOUTHWEST PASS   1500   85 82  200/  5/  5 1018.5
NEW CANAL        1500   86 84  220/  7/ 10 1016.8
SHELL BEACH      1500   85 83  220/ 10/ 12 1017.2

OFFSHORE STATIONS

STATION/POSITION TIME  TEMP    WIND        PRES    WAVE
                       AIR SEA DIR/SP/G            HT/PER
                 (UTC) (F)     (DEG/KT/KT) (MB)    (FT/S)
64 S DAUPHIN ISL 1550   84 86  200/  6/  6 1018.6    2/ 5

$$




USA.gov is the U.S. government's official web portal to all federal, state and local government web resources and services.